TimeCDT,TemperatureF,Dew PointF,Humidity,Sea Level PressureIn,VisibilityMPH,Wind Direction,Wind SpeedMPH,Gust SpeedMPH,PrecipitationIn,Events,Conditions,WindDirDegrees,DateUTC
12:53 AM,61.0,60.1,97,29.76,6.0,WNW,4.6,-,N/A,,Mostly Cloudy,290,2012-10-02 05:53:00
2:53 AM,60.1,59.0,96,29.78,7.0,Calm,Calm,-,N/A,,Overcast,0,2012-10-02 07:53:00
3:53 AM,60.1,59.0,96,29.78,8.0,Calm,Calm,-,N/A,,Overcast,0,2012-10-02 08:53:00
4:53 AM,59.0,57.9,96,29.80,7.0,Calm,Calm,-,N/A,,Overcast,0,2012-10-02 09:53:00
5:53 AM,59.0,57.0,93,29.82,8.0,Calm,Calm,-,N/A,,Scattered Clouds,0,2012-10-02 10:53:00
6:53 AM,57.0,55.9,96,29.83,5.0,Calm,Calm,-,N/A,,Clear,0,2012-10-02 11:53:00
7:53 AM,59.0,57.0,93,29.86,8.0,NW,3.5,-,N/A,,Clear,310,2012-10-02 12:53:00
8:53 AM,63.0,57.9,84,29.88,10.0,NW,3.5,-,N/A,,Clear,310,2012-10-02 13:53:00
9:53 AM,68.0,55.9,65,29.89,10.0,Variable,3.5,-,N/A,,Clear,0,2012-10-02 14:53:00
10:53 AM,70.0,57.0,63,29.91,10.0,Calm,Calm,-,N/A,,Clear,0,2012-10-02 15:53:00
11:53 AM,72.0,55.9,57,29.91,10.0,Calm,Calm,-,N/A,,Mostly Cloudy,0,2012-10-02 16:53:00
12:53 PM,73.9,54.0,50,29.90,10.0,WNW,4.6,-,N/A,,Scattered Clouds,290,2012-10-02 17:53:00
1:53 PM,73.9,52.0,46,29.88,10.0,NW,3.5,-,N/A,,Clear,310,2012-10-02 18:53:00
2:53 PM,75.9,51.1,42,29.87,10.0,NNW,5.8,-,N/A,,Partly Cloudy,330,2012-10-02 19:53:00
3:53 PM,75.0,52.0,44,29.88,10.0,West,8.1,-,N/A,,Mostly Cloudy,260,2012-10-02 20:53:00
4:53 PM,75.0,52.0,44,29.88,10.0,Variable,4.6,-,N/A,,Clear,0,2012-10-02 21:53:00
5:53 PM,73.0,55.0,53,29.89,10.0,Calm,Calm,-,N/A,,Partly Cloudy,0,2012-10-02 22:53:00
7:53 PM,64.0,59.0,84,29.93,10.0,Calm,Calm,-,N/A,,Clear,0,2012-10-03 00:53:00
9:53 PM,61.0,57.9,90,29.96,10.0,Calm,Calm,-,N/A,,Clear,0,2012-10-03 02:53:00
10:53 PM,59.0,57.0,93,29.98,10.0,Calm,Calm,-,N/A,,Clear,0,2012-10-03 03:53:00
11:53 PM,59.0,57.0,93,29.99,10.0,Calm,Calm,-,N/A,,Clear,0,2012-10-03 04:53:00